Tracking 18942 objects as of 18-Jan-2018
HD Live streaming from Space Station
objects crossing your sky now

CZ-4C DEB

Track CZ-4C DEB now!
10-day predictions


NORAD ID: 39231
Int'l Code: 2013-037H
Perigee: 676.1 km
Apogee: 1,047.0 km
Inclination: 98.1 °
Period: 102.0 minutes
Semi major axis: 7232 km
RCS: Unknown
Launch date: July 19, 2013
Source: People's Republic of China (PRC)
Launch site: Taiyaun Space Center, China (TSC)

Note: This is SATELLITE DEBRIS
aabbcc
Your satellite tracking list
Your tracking list is empty




NASA's NSSDC Master Catalog

Two Line Element Set (TLE):
1 39231U 13037H   18017.14801411  .00000133  00000-0  69722-4 0  9996
2 39231  98.1475 266.6720 0256405 141.0775 220.9171 14.11444939226383
Source of the keplerian elements: AFSPC